Flood From: 24-02-2018 06:00 Until: 25-02-2018 06:00 warning for: Flood Level: Yellow info button

Although rather usual in this region, locally or potentially dangerous phenomena are expected. (such as local winds, summer thunderstorms, rising streams or high waves) Be aware and pay attention to the latest weather updates, especially if you carry out activities exposed to weather or close to a stream or shoreline. 


Meteo18 Weather Cam more information Meteo18 Weather Cam


Thunder radar more information blitzortung!


Rain radar more information rain snow radar


Visit our other weather sites:

Template documentation
and downloads

And another site



Weather Underground History page Text

Daily Summary for June 11, 2016 Units:  Metric    English   Both
« Previous Day
Next Day »
Daily Weekly Monthly Yearly Custom
  High: Low: Average:
Temperature: -17.8 °C -9.8 °C -8.9 °C
Dew Point: -17.8 °C -10.3 °C -9.6 °C
Humidity: Humidity % 77 % 92 %
Wind Speed: 0 km/h 0 km/h 3.5 km/h
Wind Gust: 0 km/h - -
Wind:- - WSW
Pressure: 0 hPa 34188.4 hPa -
Precipitation: 398.78 mm    
Historical Graphs
 
 
Tabular Data for June 11, 2016
Time Temperature Dew Point Pressure Wind Wind Speed Wind Gust Humidity Rainfall Rate (Hourly)
-17.8 °C -17.8 °C 0 hPa Calm     Humidity % 0 mm
00:07 -9.2 °C -9.6 °C 34212.1 hPa Calm     96 % 38.1 mm
00:12 -9.2 °C -9.6 °C 34198.6 hPa Calm     96 % 63.5 mm
00:17 -9.3 °C -9.6 °C 34198.6 hPa Calm     96 % 71.12 mm
00:22 -9.3 °C -9.6 °C 34198.6 hPa Calm     96 % 83.82 mm
00:27 -9.3 °C -9.6 °C 34198.6 hPa Calm     96 % 91.44 mm
00:37 -9.3 °C -9.6 °C 34212.1 hPa Calm     96 % 91.44 mm
00:42 -9.3 °C -9.6 °C 34198.6 hPa Calm     96 % 91.44 mm
00:47 -9.3 °C -9.6 °C 34198.6 hPa Calm     96 % 147.32 mm
00:52 -9.3 °C -9.6 °C 34198.6 hPa Calm     96 % 180.34 mm
00:57 -9.3 °C -9.6 °C 34198.6 hPa Calm     96 % 180.34 mm
01:02 -9.3 °C -9.7 °C 34198.6 hPa Calm     96 % 175.26 mm
01:07 -9.3 °C -9.7 °C 34198.6 hPa Calm     96 % 154.94 mm
01:12 -9.3 °C -9.6 °C 34198.6 hPa Calm     96 % 121.92 mm
01:17 -9.3 °C -9.7 °C 34198.6 hPa Calm     96 % 109.22 mm
01:22 -9.3 °C -9.6 °C 34188.4 hPa Calm     96 % 109.22 mm
01:27 -9.3 °C -9.6 °C 34198.6 hPa Calm   2.6 km/h 97 % 96.52 mm
01:37 -9.1 °C -9.4 °C 34198.6 hPa WSW 5.1 km/h 7.7 km/h 97 % 96.52 mm
01:42 -9.1 °C -9.4 °C 34198.6 hPa WSW 2.6 km/h 7.7 km/h 97 % 58.42 mm
01:47 -9.1 °C -9.3 °C 34198.6 hPa SW 2.6 km/h 7.7 km/h 97 % 12.7 mm
01:52 -9.1 °C -9.3 °C 34198.6 hPa SSW 2.6 km/h 10.3 km/h 97 % 7.62 mm
01:57 -9 °C -9.3 °C 34198.6 hPa Calm   12.9 km/h 97 % 0 mm
02:02 -9.1 °C -9.4 °C 34198.6 hPa SW 2.6 km/h 12.9 km/h 96 % 0 mm
02:07 -9.1 °C -9.4 °C 34198.6 hPa SW 5.1 km/h 15.6 km/h 96 % 0 mm
02:12 -9.1 °C -9.4 °C 34198.6 hPa WSW 2.6 km/h 15.6 km/h 96 % 0 mm
02:17 -9.1 °C -9.4 °C 34198.6 hPa WSW 2.6 km/h 15.6 km/h 96 % 0 mm
02:22 -9.1 °C -9.4 °C 34198.6 hPa WSW 5.1 km/h 15.6 km/h 96 % 0 mm
02:27 -9.1 °C -9.4 °C 34198.6 hPa Calm   10.3 km/h 96 % 0 mm
02:32 -9.1 °C -9.4 °C 34198.6 hPa WSW 2.6 km/h 10.3 km/h 96 % 0 mm
02:37 -9.1 °C -9.4 °C 34188.4 hPa SW 2.6 km/h 10.3 km/h 96 % 0 mm
02:42 -9.2 °C -9.5 °C 34198.6 hPa WSW 2.6 km/h 12.9 km/h 96 % 0 mm
02:52 -9.2 °C -9.6 °C 34198.6 hPa Calm   18.2 km/h 96 % 0 mm
02:57 -9.2 °C -9.6 °C 34198.6 hPa Calm   18.2 km/h 96 % 0 mm
03:02 -9.2 °C -9.6 °C 34198.6 hPa WSW 2.6 km/h 18.2 km/h 96 % 0 mm
03:07 -9.3 °C -9.6 °C 34198.6 hPa SW 2.6 km/h 10.3 km/h 96 % 0 mm
03:12 -9.3 °C -9.6 °C 34188.4 hPa SW 2.6 km/h 15.6 km/h 96 % 0 mm
03:17 -9.3 °C -9.6 °C 34198.6 hPa WNW 2.6 km/h 15.6 km/h 96 % 0 mm
03:22 -9.3 °C -9.7 °C 34188.4 hPa Calm   15.6 km/h 96 % 0 mm
03:32 -9.3 °C -9.7 °C 34188.4 hPa SW 2.6 km/h 15.6 km/h 96 % 0 mm
03:37 -9.4 °C -9.8 °C 34188.4 hPa WSW 5.1 km/h 15.6 km/h 95 % 0 mm
03:42 -9.4 °C -9.9 °C 34188.4 hPa SW 5.1 km/h 15.6 km/h 95 % 0 mm
03:47 -9.5 °C -9.9 °C 34188.4 hPa SW 2.6 km/h 15.6 km/h 95 % 0 mm
03:52 -9.6 °C -10 °C 34188.4 hPa WSW 7.7 km/h 12.9 km/h 95 % 0 mm
03:57 -9.6 °C -10 °C 34188.4 hPa Calm   18.2 km/h 95 % 0 mm
04:02 -9.6 °C -10 °C 34188.4 hPa Calm   18.2 km/h 95 % 0 mm
04:07 -9.6 °C -10 °C 34188.4 hPa SW 5.1 km/h 15.6 km/h 95 % 0 mm
04:12 -9.5 °C -9.9 °C 34188.4 hPa WSW 5.1 km/h 15.6 km/h 95 % 0 mm
04:17 -9.5 °C -9.9 °C 34188.4 hPa WSW 5.1 km/h 15.6 km/h 95 % 0 mm
04:22 -9.5 °C -9.9 °C 34188.4 hPa Calm   15.6 km/h 95 % 0 mm
04:27 -9.5 °C -9.9 °C 34188.4 hPa Calm   10.3 km/h 95 % 0 mm
04:32 -9.5 °C -9.9 °C 34188.4 hPa Calm   10.3 km/h 95 % 0 mm
04:37 -9.5 °C -9.9 °C 34188.4 hPa SW 2.6 km/h 10.3 km/h 95 % 0 mm
04:42 -9.5 °C -9.9 °C 34188.4 hPa Calm   12.9 km/h 95 % 0 mm
04:47 -9.5 °C -9.9 °C 34188.4 hPa WSW 2.6 km/h 12.9 km/h 95 % 0 mm
04:52 -9.5 °C -9.9 °C 34188.4 hPa West 5.1 km/h 12.9 km/h 95 % 0 mm
04:57 -9.5 °C -9.9 °C 34188.4 hPa West 5.1 km/h 15.6 km/h 95 % 0 mm
05:02 -9.5 °C -9.9 °C 34188.4 hPa WSW 7.7 km/h 15.6 km/h 95 % 0 mm
05:17 -9.5 °C -9.9 °C 34198.6 hPa Calm   10.3 km/h 95 % 0 mm
05:22 -9.5 °C -9.9 °C 34198.6 hPa Calm   10.3 km/h 95 % 0 mm
05:32 -9.5 °C -9.9 °C 34198.6 hPa SW 2.6 km/h 10.3 km/h 95 % 0 mm
05:37 -9.6 °C -10 °C 34198.6 hPa SW 5.1 km/h 10.3 km/h 95 % 0 mm
05:42 -9.6 °C -10 °C 34198.6 hPa WSW 2.6 km/h 12.9 km/h 95 % 0 mm
05:47 -9.6 °C -10.1 °C 34198.6 hPa WSW 2.6 km/h 12.9 km/h 95 % 0 mm
05:52 -9.6 °C -10.1 °C 34198.6 hPa WSW 7.7 km/h 12.9 km/h 95 % 0 mm
05:57 -9.6 °C -10.1 °C 34198.6 hPa Calm   12.9 km/h 95 % 0 mm
06:02 -9.6 °C -10.1 °C 34198.6 hPa Calm   10.3 km/h 95 % 0 mm
06:12 -9.7 °C -10.2 °C 34198.6 hPa WSW 5.1 km/h 10.3 km/h 95 % 0 mm
06:17 -9.8 °C -10.2 °C 34198.6 hPa Calm   10.3 km/h 95 % 0 mm
06:22 -9.8 °C -10.2 °C 34198.6 hPa Calm   10.3 km/h 95 % 0 mm
06:32 -9.8 °C -10.3 °C 34198.6 hPa WSW 2.6 km/h 7.7 km/h 95 % 0 mm
06:37 -9.8 °C -10.2 °C 34198.6 hPa West 2.6 km/h 7.7 km/h 96 % 0 mm
06:52 -9.7 °C -10 °C 34212.1 hPa WSW 2.6 km/h 12.9 km/h 96 % 0 mm
06:57 -9.6 °C -9.9 °C 34212.1 hPa SSW 2.6 km/h 10.3 km/h 96 % 0 mm
07:02 -9.6 °C -10.1 °C 34212.1 hPa Calm   15.6 km/h 95 % 0 mm
07:12 -9.6 °C -10 °C 34212.1 hPa SW 2.6 km/h 15.6 km/h 95 % 0 mm
07:17 -9.6 °C -10.1 °C 34212.1 hPa WSW 2.6 km/h 10.3 km/h 95 % 0 mm
07:22 -9.6 °C -10.1 °C 34212.1 hPa Calm   10.3 km/h 95 % 0 mm
07:27 -9.6 °C -10 °C 34212.1 hPa Calm   7.7 km/h 95 % 0 mm
07:32 -9.6 °C -10.1 °C 34212.1 hPa WSW 2.6 km/h 10.3 km/h 95 % 0 mm
07:42 -9.6 °C -10.1 °C 34212.1 hPa SW 2.6 km/h 12.9 km/h 95 % 0 mm
07:47 -9.6 °C -10 °C 34212.1 hPa SW 2.6 km/h 12.9 km/h 95 % 0 mm
07:52 -9.6 °C -10 °C 34222.3 hPa WNW 2.6 km/h 10.3 km/h 95 % 0 mm
07:57 -9.6 °C -10 °C 34222.3 hPa SW 12.9 km/h 12.9 km/h 95 % 0 mm
08:02 -9.6 °C -10.1 °C 34222.3 hPa WSW 7.7 km/h 12.9 km/h 95 % 0 mm
08:12 -9.6 °C -9.9 °C 34222.3 hPa WSW 2.6 km/h 15.6 km/h 96 % 0 mm
08:17 -9.6 °C -9.9 °C 34222.3 hPa Calm   15.6 km/h 96 % 0 mm
08:22 -9.6 °C -10 °C 34222.3 hPa SW 2.6 km/h 12.9 km/h 95 % 0 mm
08:32 -9.4 °C -9.8 °C 34222.3 hPa WSW 2.6 km/h 12.9 km/h 95 % 0 mm
08:37 -9.3 °C -9.8 °C 34222.3 hPa Calm   10.3 km/h 95 % 0 mm
08:42 -9.3 °C -9.8 °C 34235.8 hPa Calm   10.3 km/h 94 % 0 mm
08:47 -9.2 °C -9.8 °C 34235.8 hPa WSW 2.6 km/h 10.3 km/h 94 % 0 mm
08:52 -9.2 °C -9.8 °C 34222.3 hPa West 5.1 km/h 10.3 km/h 93 % 0 mm
08:57 -9.2 °C -9.8 °C 34222.3 hPa SW 7.7 km/h 10.3 km/h 93 % 0 mm
09:12 -9 °C -9.7 °C 34235.8 hPa SW 2.6 km/h 15.6 km/h 92 % 0 mm
09:17 -8.9 °C -9.7 °C 34235.8 hPa Calm   15.6 km/h 92 % 0 mm
09:22 -8.9 °C -9.6 °C 34235.8 hPa SW 2.6 km/h 15.6 km/h 92 % 0 mm
09:27 -8.8 °C -9.7 °C 34235.8 hPa Calm   18.2 km/h 91 % 0 mm
09:32 -8.9 °C -9.7 °C 34235.8 hPa West 2.6 km/h 18.2 km/h 91 % 0 mm
09:37 -8.9 °C -9.8 °C 34235.8 hPa WSW 5.1 km/h 10.3 km/h 91 % 0 mm
09:42 -8.9 °C -9.8 °C 34235.8 hPa WSW 7.7 km/h 12.9 km/h 91 % 0 mm
09:52 -9 °C -9.8 °C 34235.8 hPa West 10.3 km/h 12.9 km/h 91 % 0 mm
09:57 -9 °C -9.8 °C 34235.8 hPa Calm   15.6 km/h 91 % 0 mm
10:02 -9.1 °C -9.9 °C 34235.8 hPa WSW 5.1 km/h 15.6 km/h 91 % 0 mm
10:07 -9.1 °C -9.8 °C 34235.8 hPa Calm   15.6 km/h 92 % 0 mm
10:12 -9.1 °C -9.8 °C 34235.8 hPa SW 5.1 km/h 15.6 km/h 92 % 0 mm
10:17 -9.1 °C -9.8 °C 34235.8 hPa Calm   18.2 km/h 92 % 0 mm
10:22 -9 °C -9.7 °C 34235.8 hPa SW 7.7 km/h 18.2 km/h 92 % 0 mm
10:27 -9 °C -9.8 °C 34235.8 hPa WSW 5.1 km/h 15.6 km/h 91 % 0 mm
10:32 -8.9 °C -9.6 °C 34235.8 hPa SW 5.1 km/h 15.6 km/h 92 % 0 mm
10:37 -8.8 °C -9.5 °C 34235.8 hPa SSW 2.6 km/h 15.6 km/h 92 % 0 mm
10:42 -8.7 °C -9.6 °C 34235.8 hPa SW 5.1 km/h 15.6 km/h 91 % 0 mm
10:52 -8.8 °C -9.6 °C 34235.8 hPa West 12.9 km/h 20.8 km/h 92 % 0 mm
10:57 -8.8 °C -9.7 °C 34235.8 hPa SW 7.7 km/h 20.8 km/h 91 % 0 mm
11:02 -8.8 °C -9.7 °C 34235.8 hPa WSW 10.3 km/h 15.6 km/h 91 % 0 mm
11:07 -8.9 °C -9.7 °C 34235.8 hPa NE 7.7 km/h 15.6 km/h 91 % 0 mm
11:12 -8.8 °C -9.7 °C 34235.8 hPa SW 2.6 km/h 15.6 km/h 91 % 0 mm
11:17 -8.8 °C -9.6 °C 34235.8 hPa WSW 5.1 km/h 18.2 km/h 91 % 0 mm
11:22 -8.7 °C -9.6 °C 34235.8 hPa West 7.7 km/h 18.2 km/h 91 % 0 mm
11:32 -8.7 °C -9.6 °C 34246 hPa SW 10.3 km/h 12.9 km/h 91 % 0 mm
11:37 -8.7 °C -9.6 °C 34246 hPa SW 7.7 km/h 15.6 km/h 91 % 0 mm
11:42 -8.8 °C -9.7 °C 34246 hPa WSW 15.6 km/h 20.8 km/h 90 % 0 mm
11:52 -8.8 °C -9.6 °C 34246 hPa SW 5.1 km/h 20.8 km/h 91 % 0 mm
11:57 -8.8 °C -9.6 °C 34246 hPa SW 7.7 km/h 18.2 km/h 91 % 0 mm
12:02 -8.8 °C -9.7 °C 34246 hPa SW 7.7 km/h 15.6 km/h 90 % 0 mm
12:07 -8.8 °C -9.6 °C 34246 hPa SW 15.6 km/h 15.6 km/h 91 % 0 mm
12:12 -8.8 °C -9.6 °C 34246 hPa Calm   15.6 km/h 91 % 0 mm
12:22 -8.7 °C -9.6 °C 34246 hPa SW 2.6 km/h 15.6 km/h 91 % 0 mm
12:27 -8.6 °C -9.5 °C 34246 hPa WSW 5.1 km/h 12.9 km/h 90 % 0 mm
12:37 -8.6 °C -9.5 °C 34246 hPa Calm   20.8 km/h 90 % 0 mm
12:42 -8.7 °C -9.6 °C 34246 hPa WSW 2.6 km/h 20.8 km/h 90 % 0 mm
12:47 -8.7 °C -9.6 °C 34246 hPa WSW 12.9 km/h 15.6 km/h 90 % 0 mm
12:52 -8.7 °C -9.6 °C 34246 hPa WSW 5.1 km/h 23.3 km/h 90 % 0 mm
12:57 -8.7 °C -9.6 °C 34246 hPa WSW 7.7 km/h 23.3 km/h 90 % 0 mm
13:02 -8.7 °C -9.6 °C 34246 hPa Calm   23.3 km/h 91 % 0 mm
13:07 -8.7 °C -9.6 °C 34246 hPa SW 5.1 km/h 18.2 km/h 90 % 0 mm
13:12 -8.7 °C -9.6 °C 34246 hPa WSW 2.6 km/h 18.2 km/h 90 % 0 mm
13:17 -8.5 °C -9.4 °C 34246 hPa Calm   10.3 km/h 90 % 0 mm
13:22 -8.4 °C -9.4 °C 34246 hPa Calm   10.3 km/h 89 % 0 mm
13:32 -8.1 °C -9.2 °C 34246 hPa SW 5.1 km/h 10.3 km/h 88 % 0 mm
13:37 -8.1 °C -9.3 °C 34246 hPa Calm   10.3 km/h 87 % 0 mm
13:42 -8.1 °C -9.4 °C 34246 hPa Calm   10.3 km/h 86 % 0 mm
13:47 -8 °C -9.3 °C 34246 hPa SW 7.7 km/h 10.3 km/h 86 % 0 mm
13:52 -8 °C -9 °C 34246 hPa Calm   10.3 km/h 89 % 0 mm
13:57 -8 °C -9 °C 34246 hPa WSW 2.6 km/h 10.3 km/h 89 % 12.7 mm
14:02 -7.9 °C -9 °C 34235.8 hPa Calm   7.7 km/h 88 % 12.7 mm
14:07 -7.8 °C -8.9 °C 34235.8 hPa West 5.1 km/h 7.7 km/h 88 % 12.7 mm
14:12 -7.6 °C -9.1 °C 34235.8 hPa Calm   7.7 km/h 85 % 12.7 mm
14:17 -7.6 °C -9.1 °C 34235.8 hPa Calm   10.3 km/h 85 % 12.7 mm
14:22 -7.6 °C -9.2 °C 34235.8 hPa Calm   12.9 km/h 84 % 12.7 mm
14:27 -7.6 °C -9.2 °C 34235.8 hPa SW 2.6 km/h 12.9 km/h 83 % 12.7 mm
14:32 -7.6 °C -9.2 °C 34235.8 hPa SSW 2.6 km/h 12.9 km/h 83 % 12.7 mm
14:37 -7.4 °C -8.9 °C 34235.8 hPa SW 2.6 km/h 12.9 km/h 84 % 12.7 mm
14:42 -7.2 °C -8.9 °C 34235.8 hPa Calm   10.3 km/h 82 % 12.7 mm
14:52 -7 °C -9.1 °C 34235.8 hPa West 5.1 km/h 10.3 km/h 79 % 0 mm
14:57 -7.3 °C -9.1 °C 34235.8 hPa SW 5.1 km/h 25.9 km/h 81 % 0 mm
15:02 -7.6 °C -9.1 °C 34235.8 hPa Calm   25.9 km/h 84 % 0 mm
15:07 -7.6 °C -9.1 °C 34235.8 hPa SSW 7.7 km/h 25.9 km/h 85 % 0 mm
15:12 -7.6 °C -9.1 °C 34235.8 hPa SW 18.2 km/h 18.2 km/h 85 % 0 mm
15:17 -7.7 °C -9.2 °C 34235.8 hPa NE 5.1 km/h 23.3 km/h 84 % 0 mm
15:22 -7.7 °C -9.1 °C 34235.8 hPa WSW 12.9 km/h 23.3 km/h 85 % 0 mm
15:27 -7.4 °C -9 °C 34235.8 hPa West 2.6 km/h 25.9 km/h 84 % 0 mm
15:32 -7.1 °C -8.8 °C 34235.8 hPa SW 7.7 km/h 25.9 km/h 82 % 0 mm
15:42 -6.9 °C -8.9 °C 34235.8 hPa WSW 10.3 km/h 28.5 km/h 79 % 0 mm
15:47 -6.9 °C -9.2 °C 34235.8 hPa ENE 7.7 km/h 28.5 km/h 77 % 0 mm
15:52 -6.9 °C -9.1 °C 34235.8 hPa NNW 2.6 km/h 28.5 km/h 78 % 0 mm
15:57 -7.1 °C -9.3 °C 34235.8 hPa SW 10.3 km/h 25.9 km/h 77 % 0 mm
16:02 -7.3 °C -9.3 °C 34235.8 hPa SSW 5.1 km/h 25.9 km/h 79 % 0 mm
16:07 -7.4 °C -9.5 °C 34235.8 hPa NW 2.6 km/h 25.9 km/h 79 % 0 mm
16:12 -7.6 °C -9.3 °C 34235.8 hPa West 5.1 km/h 25.9 km/h 82 % 0 mm
16:17 -7.6 °C -9.2 °C 34235.8 hPa SW 2.6 km/h 18.2 km/h 84 % 0 mm
16:22 -7.6 °C -9.2 °C 34235.8 hPa SW 2.6 km/h 10.3 km/h 84 % 0 mm
16:27 -7.6 °C -9.2 °C 34235.8 hPa West 5.1 km/h 12.9 km/h 84 % 0 mm
16:32 -7.8 °C -9.6 °C 34246 hPa SW 23.3 km/h 25.9 km/h 82 % 0 mm
16:37 -8.4 °C -9.8 °C 34246 hPa WSW 5.1 km/h 33.6 km/h 85 % 7.62 mm
16:42 -8.8 °C -9.8 °C 34246 hPa Calm   33.6 km/h 89 % 12.7 mm
16:47 -8.9 °C -9.8 °C 34246 hPa WSW 2.6 km/h 33.6 km/h 91 % 20.32 mm
16:52 -8.9 °C -9.7 °C 34235.8 hPa WSW 2.6 km/h 28.5 km/h 92 % 25.4 mm
16:57 -8.6 °C -9.1 °C 34235.8 hPa SW 2.6 km/h 20.8 km/h 95 % 25.4 mm
17:02 -8.2 °C -8.8 °C 34235.8 hPa WSW 12.9 km/h 20.8 km/h 93 % 25.4 mm
17:07 -7.9 °C -8.7 °C 34235.8 hPa SW 7.7 km/h 18.2 km/h 92 % 25.4 mm
17:12 -7.7 °C -8.8 °C 34235.8 hPa West 20.8 km/h 20.8 km/h 88 % 25.4 mm
17:17 -7.7 °C -8.9 °C 34235.8 hPa West 10.3 km/h 25.9 km/h 87 % 25.4 mm
17:22 -7.7 °C -8.7 °C 34235.8 hPa WSW 12.9 km/h 28.5 km/h 89 % 25.4 mm
17:27 -7.7 °C -8.9 °C 34235.8 hPa WSW 12.9 km/h 28.5 km/h 87 % 25.4 mm
17:32 -7.9 °C -9.1 °C 34235.8 hPa SW 7.7 km/h 28.5 km/h 87 % 25.4 mm
17:37 -8.1 °C -9.2 °C 34235.8 hPa WSW 7.7 km/h 28.5 km/h 88 % 33.02 mm
17:42 -8.3 °C -9.2 °C 34235.8 hPa WNW 2.6 km/h 28.5 km/h 90 % 33.02 mm
17:47 -8.4 °C -9.3 °C 34235.8 hPa SW 5.1 km/h 25.9 km/h 91 % 25.4 mm
17:52 -8.6 °C -9.3 °C 34246 hPa West 5.1 km/h 25.9 km/h 92 % 58.42 mm
17:57 -8.7 °C -9.4 °C 34246 hPa Calm   23.3 km/h 92 % 83.82 mm
18:02 -8.8 °C -9.4 °C 34235.8 hPa WSW 2.6 km/h 18.2 km/h 93 % 96.52 mm
18:07 -8.8 °C -9.4 °C 34246 hPa Calm   15.6 km/h 94 % 96.52 mm
18:12 -8.8 °C -9.3 °C 34246 hPa Calm   5.1 km/h 94 % 96.52 mm
18:17 -8.8 °C -9.3 °C 34246 hPa West 5.1 km/h 10.3 km/h 94 % 96.52 mm
18:22 -8.7 °C -9.3 °C 34235.8 hPa Calm   10.3 km/h 94 % 96.52 mm
18:32 -8.6 °C -9.1 °C 34235.8 hPa WSW 5.1 km/h 18.2 km/h 94 % 96.52 mm
18:42 -8.4 °C -9 °C 34235.8 hPa West 5.1 km/h 18.2 km/h 94 % 71.12 mm
18:47 -8.4 °C -9.1 °C 34235.8 hPa SE 2.6 km/h 18.2 km/h 92 % 58.42 mm
18:57 -8.4 °C -9.1 °C 34235.8 hPa West 2.6 km/h 15.6 km/h 92 % 7.62 mm
19:07 -8.3 °C -9.1 °C 34235.8 hPa Calm   10.3 km/h 92 % 0 mm
19:17 -8.3 °C -9 °C 34235.8 hPa SW 2.6 km/h 7.7 km/h 92 % 0 mm
19:22 -8.3 °C -9.1 °C 34235.8 hPa SW 5.1 km/h 10.3 km/h 92 % 0 mm
19:32 -8.3 °C -8.9 °C 34235.8 hPa WSW 2.6 km/h 7.7 km/h 93 % 0 mm
19:37 -8.4 °C -9 °C 34235.8 hPa West 5.1 km/h 7.7 km/h 93 % 7.62 mm
19:47 -8.6 °C -9.2 °C 34246 hPa SW 2.6 km/h 12.9 km/h 93 % 50.8 mm
19:52 -8.7 °C -9.2 °C 34235.8 hPa Calm   12.9 km/h 94 % 76.2 mm
19:57 -8.7 °C -9.2 °C 34235.8 hPa SW 5.1 km/h 12.9 km/h 94 % 76.2 mm
20:02 -8.7 °C -9.2 °C 34246 hPa WSW 2.6 km/h 12.9 km/h 94 % 76.2 mm
20:12 -8.7 °C -9.2 °C 34235.8 hPa Calm   10.3 km/h 94 % 83.82 mm
20:17 -8.7 °C -9.3 °C 34235.8 hPa SW 7.7 km/h 12.9 km/h 94 % 83.82 mm
20:22 -8.7 °C -9.3 °C 34235.8 hPa Calm   15.6 km/h 94 % 83.82 mm
20:27 -8.8 °C -9.3 °C 34235.8 hPa SW 5.1 km/h 15.6 km/h 94 % 83.82 mm
20:32 -8.8 °C -9.3 °C 34235.8 hPa SW 7.7 km/h 15.6 km/h 94 % 83.82 mm
20:37 -8.8 °C -9.4 °C 34235.8 hPa WSW 5.1 km/h 12.9 km/h 94 % 76.2 mm
20:42 -8.8 °C -9.4 °C 34235.8 hPa WNW 7.7 km/h 12.9 km/h 94 % 63.5 mm
20:47 -8.8 °C -9.3 °C 34235.8 hPa Calm   10.3 km/h 95 % 25.4 mm
20:52 -8.9 °C -9.4 °C 34235.8 hPa WSW 2.6 km/h 7.7 km/h 94 % 12.7 mm
20:57 -8.9 °C -9.3 °C 34246 hPa SW 5.1 km/h 10.3 km/h 95 % 12.7 mm
21:02 -8.9 °C -9.4 °C 34246 hPa WSW 2.6 km/h 15.6 km/h 95 % 12.7 mm
21:07 -8.9 °C -9.4 °C 34235.8 hPa WSW 5.1 km/h 15.6 km/h 95 % 7.62 mm
21:17 -8.9 °C -9.5 °C 34235.8 hPa SW 2.6 km/h 12.9 km/h 94 % 0 mm
21:22 -9 °C -9.6 °C 34235.8 hPa WSW 7.7 km/h 12.9 km/h 94 % 0 mm
21:27 -9 °C -9.6 °C 34246 hPa SW 7.7 km/h 12.9 km/h 94 % 0 mm
21:32 -9 °C -9.6 °C 34246 hPa South 5.1 km/h 10.3 km/h 94 % 0 mm
21:37 -9 °C -9.6 °C 34246 hPa WSW 2.6 km/h 15.6 km/h 94 % 0 mm
21:42 -9.1 °C -9.6 °C 34246 hPa Calm   15.6 km/h 94 % 0 mm
21:47 -9.1 °C -9.6 °C 34246 hPa WSW 2.6 km/h 15.6 km/h 94 % 0 mm
21:52 -9.1 °C -9.7 °C 34246 hPa SW 2.6 km/h 10.3 km/h 94 % 0 mm
21:57 -9.1 °C -9.7 °C 34246 hPa SW 2.6 km/h 10.3 km/h 94 % 0 mm
22:02 -9.2 °C -9.6 °C 34246 hPa SW 2.6 km/h 10.3 km/h 95 % 0 mm
22:07 -9.2 °C -9.7 °C 34256.2 hPa NE 2.6 km/h 12.9 km/h 95 % 0 mm
22:12 -9.2 °C -9.7 °C 34256.2 hPa WSW 2.6 km/h 12.9 km/h 95 % 0 mm
22:17 -9.2 °C -9.7 °C 34256.2 hPa WSW 2.6 km/h 12.9 km/h 95 % 0 mm
22:22 -9.2 °C -9.7 °C 34256.2 hPa Calm   10.3 km/h 95 % 0 mm
22:27 -9.2 °C -9.7 °C 34256.2 hPa Calm   10.3 km/h 95 % 0 mm
22:32 -9.2 °C -9.7 °C 34256.2 hPa West 2.6 km/h 7.7 km/h 95 % 0 mm
22:37 -9.3 °C -9.7 °C 34256.2 hPa Calm   5.1 km/h 95 % 0 mm
22:42 -9.3 °C -9.7 °C 34256.2 hPa Calm   5.1 km/h 95 % 0 mm
22:47 -9.3 °C -9.8 °C 34256.2 hPa West 2.6 km/h 5.1 km/h 95 % 0 mm
22:52 -9.3 °C -9.8 °C 34256.2 hPa Calm   7.7 km/h 95 % 0 mm
23:02 -9.3 °C -9.7 °C 34269.7 hPa Calm   10.3 km/h 96 % 0 mm
23:07 -9.3 °C -9.6 °C 34269.7 hPa Calm   10.3 km/h 96 % 0 mm
23:12 -9.3 °C -9.6 °C 34269.7 hPa Calm   10.3 km/h 96 % 0 mm
23:17 -9.3 °C -9.6 °C 34269.7 hPa WSW 2.6 km/h 7.7 km/h 96 % 0 mm
23:22 -9.3 °C -9.6 °C 34269.7 hPa WSW 2.6 km/h 10.3 km/h 96 % 0 mm
23:32 -9.3 °C -9.6 °C 34279.9 hPa WSW 2.6 km/h 10.3 km/h 96 % 0 mm
23:37 -9.2 °C -9.7 °C 34279.9 hPa WSW 2.6 km/h 10.3 km/h 95 % 0 mm
23:42 -9.2 °C -9.7 °C 34279.9 hPa WSW 2.6 km/h 12.9 km/h 95 % 0 mm
23:47 -9.2 °C -9.7 °C 34279.9 hPa Calm   12.9 km/h 95 % 0 mm
23:57 -9.2 °C -9.7 °C 34279.9 hPa WSW 5.1 km/h 10.3 km/h 95 % 0 mm
Meteo18
Compliments of Weather Underground - 4 mb

Script developed by  Jim McMurry - jmcmurry@mwt.net Adapted for the template by  Wim van der Kuil - Leuven-Template.eu

You find our weather info also at:

European Weather Network

Weather Underground

Equipment we use:

Weather-station
Davis Vue

Weather-program
Meteobridge

Weather-server
Raspberry PI 2 B+

Provider
1 and 1

Davis Vue

Meteobridge

Raspberry PI 2 B+

1 and 1